This is the latest recevied weather packets stored in our database for station/object DJ9MA-10. If no packets are shown the sender has not sent any weather packets the latest 10 day(s).
| Time | Temp. | Humidity | Pressure | Rain* | Wind** | Luminosity | Snow |
|---|---|---|---|---|---|---|---|
| 1777589935 | 12.22° C | 47% | 974.2 hPa | - | - | - | - |
| 1777589035 | 12.22° C | 47% | 974.2 hPa | - | - | - | - |
| 1777588135 | 12.22° C | 47% | 974.1 hPa | - | - | - | - |
| 1777587235 | 12.22° C | 47% | 974.3 hPa | - | - | - | - |
| 1777586335 | 12.22° C | 47% | 974.3 hPa | - | - | - | - |
| 1777585435 | 12.22° C | 46% | 974.2 hPa | - | - | - | - |
| 1777584535 | 12.78° C | 45% | 974.2 hPa | - | - | - | - |
| 1777583635 | 12.78° C | 44% | 974 hPa | - | - | - | - |
| 1777582735 | 13.33° C | 45% | 974.1 hPa | - | - | - | - |
| 1777581835 | 13.33° C | 43% | 974 hPa | - | - | - | - |
| 1777580935 | 13.33° C | 43% | 974.1 hPa | - | - | - | - |
| 1777580035 | 13.89° C | 43% | 974.1 hPa | - | - | - | - |
| 1777579135 | 13.89° C | 43% | 974 hPa | - | - | - | - |
| 1777578234 | 14.44° C | 42% | 973.8 hPa | - | - | - | - |
| 1777577335 | 14.44° C | 42% | 973.8 hPa | - | - | - | - |
| 1777576434 | 14.44° C | 41% | 973.7 hPa | - | - | - | - |
| 1777575534 | 15° C | 41% | 973.5 hPa | - | - | - | - |
| 1777574634 | 13.33° C | 43% | 973.4 hPa | - | - | - | - |
| 1777573734 | 13.89° C | 41% | 973.3 hPa | - | - | - | - |
| 1777572834 | 14.44° C | 39% | 973.1 hPa | - | - | - | - |
| 1777571934 | 15° C | 39% | 973 hPa | - | - | - | - |
| 1777571034 | 15° C | 37% | 972.9 hPa | - | - | - | - |
| 1777570134 | 15.56° C | 37% | 972.9 hPa | - | - | - | - |
| 1777569234 | 15.56° C | 36% | 972.8 hPa | - | - | - | - |
| 1777568334 | 15.56° C | 35% | 972.8 hPa | - | - | - | - |
* Rain since midnight (hover to see other rain measurements)
** Current wind speed in m/s (hover to see current wind gust speed)